Wind_Speed
33 33 30 30 38 34 33 29 29 36 22 23 18 16 16 14 13 10 12 13 15 15 17 15 13 13 15 13 11 9 10 11 11 9 10 11 11 11 12 12 11 11 11
36 33 38 36 39 40 40 35 40 31 21 17 16 16 16 15 15 15 14 15 17 15 16 17 15 16 12 11 9 11 12 12 12 10 11 11 11 11 11 11 11 11 10
32 35 33 41 45 45 45 42 34 30 28 20 17 17 17 16 18 16 16 18 16 15 17 18 19 15 12 12 11 12 13 15 14 12 12 12 11 12 10 11 11 9 8
30 34 40 42 40 41 39 41 40 36 24 22 19 19 20 20 17 15 16 19 21 17 17 18 18 15 15 14 13 15 15 16 14 12 13 13 13 11 10 11 11 9 8
34 38 39 38 40 40 40 35 35 33 31 24 24 22 21 21 16 17 17 17 20 17 19 15 18 17 19 16 17 16 17 15 14 13 13 13 14 11 8 9 8 6 4
37 38 39 40 42 38 39 39 35 33 30 27 27 24 22 20 17 16 17 14 15 20 21 19 20 20 19 19 20 18 18 16 15 14 13 14 12 10 7 8 6 5 5
38 40 42 34 44 42 39 40 43 34 33 30 31 25 24 23 19 16 13 17 14 19 18 18 20 20 21 22 21 19 20 17 16 14 15 14 11 11 8 7 5 5 4
37 43 40 43 43 46 45 46 37 46 36 34 25 27 24 24 18 22 24 19 18 19 16 16 19 22 25 24 23 22 19 18 17 16 14 13 13 10 8 8 7 7 7
31 39 47 47 46 47 49 49 51 41 37 40 26 30 27 19 20 22 19 21 21 22 21 20 21 24 27 27 26 27 23 19 18 16 14 14 13 12 10 9 9 9 9
24 25 29 38 45 45 52 51 42 46 42 27 32 33 24 19 23 24 24 22 24 26 27 24 27 32 29 30 31 31 23 16 17 15 15 14 13 13 12 12 12 12 12
12 8 8 16 25 37 42 54 47 58 47 39 43 30 22 22 24 23 27 23 25 28 31 24 27 24 26 22 28 26 15 17 17 17 16 15 14 14 14 14 15 16 17
4 11 6 13 23 30 36 46 42 50 48 42 31 25 26 26 24 24 24 25 25 25 29 30 28 24 22 19 20 21 17 17 17 18 17 15 16 15 17 17 18 20 21
3 4 8 7 16 32 34 42 54 52 39 43 30 28 26 24 25 25 27 27 21 21 21 25 31 28 25 20 18 20 18 17 17 18 19 18 17 18 20 20 21 23 22
2 6 10 5 9 5 28 50 41 43 39 26 26 25 21 20 27 21 21 17 22 23 23 23 25 27 23 20 22 21 19 18 19 19 19 19 19 21 22 23 24 24 23
2 6 10 11 15 16 35 46 51 43 28 25 28 26 23 19 27 25 23 21 21 23 24 26 24 23 23 20 21 21 18 18 19 19 20 20 21 23 25 25 26 26 25
2 4 6 9 14 13 29 40 31 28 27 27 28 33 29 19 22 23 25 24 27 23 22 28 23 23 23 20 20 19 18 18 19 20 21 22 24 26 27 28 28 27 27
6 7 4 8 7 9 9 21 30 20 21 29 18 25 28 23 24 23 25 24 29 26 26 26 24 25 23 19 19 19 18 20 21 22 24 26 26 28 29 29 29 30 30
11 12 9 6 8 11 9 13 13 17 19 27 22 23 24 21 21 20 24 25 25 23 28 24 27 22 20 17 20 19 20 23 24 24 26 27 29 30 31 32 32 33 34
14 12 11 11 10 11 15 17 17 21 23 21 20 23 26 29 25 26 27 27 26 27 23 23 20 20 17 19 19 20 21 24 23 26 28 29 30 32 33 33 33 34 36
13 11 11 12 13 13 16 19 22 23 24 16 22 27 32 30 27 28 26 27 24 23 21 19 19 20 17 18 22 22 23 24 26 28 30 32 33 32 33 35 36 37 39
12 14 10 11 16 13 15 15 18 23 25 23 26 24 29 27 27 28 20 17 19 21 20 18 18 18 19 21 22 24 24 27 30 32 32 34 34 34 36 34 34 37 42
6 14 10 9 17 12 12 14 16 21 33 31 31 28 24 25 21 16 14 17 21 21 18 19 20 21 24 24 25 26 28 30 33 33 33 33 35 38 41 43 45 45 44
9 9 11 12 13 15 16 17 19 21 21 18 20 18 18 20 20 19 19 20 20 17 22 21 25 23 24 26 29 30 32 33 37 39 40 42 44 47 47 46 47 44 45
10 9 9 10 11 12 15 15 13 15 16 17 16 14 14 16 18 17 18 17 17 20 23 22 22 24 26 28 31 33 34 35 33 37 40 42 44 47 46 40 40 41 44
3 7 8 9 7 10 12 12 11 12 11 10 11 12 13 12 11 13 17 19 19 19 21 20 25 27 28 29 32 33 35 37 38 39 40 41 44 45 45 43 44 50 54
4 4 8 8 8 8 9 10 9 11 12 14 14 13 11 11 15 18 23 22 19 19 21 23 25 27 29 29 31 34 37 40 41 40 45 44 40 40 45 46 51 54 50
Wind_Direction
240 260 247 263 254 257 260 235 234 229 205 192 202 211 220 233 247 255 269 281 270 268 281 272 263 260 254 265 269 275 281 288 292 302 306 305 306 300 297 296 295 295 295
243 257 252 252 254 256 245 241 227 230 204 210 201 221 229 233 245 255 265 273 278 281 283 271 267 257 262 266 276 282 293 290 291 296 299 306 299 292 289 286 286 283 290
259 269 260 256 256 254 260 254 224 213 210 213 217 230 235 247 251 254 263 270 272 274 277 275 270 268 273 275 280 282 284 287 293 300 301 306 296 291 293 292 290 293 294
257 257 251 256 259 255 255 250 241 229 214 228 225 232 238 243 256 266 272 284 281 259 263 264 271 267 269 269 270 273 278 286 289 300 300 295 290 290 294 290 284 284 281
256 245 255 262 255 258 252 231 207 211 205 219 225 230 238 250 263 267 273 285 295 284 282 270 268 267 268 269 273 272 272 282 286 286 289 285 286 281 274 274 270 264 276
255 249 252 249 242 248 251 230 205 210 208 211 227 228 239 251 260 267 277 270 275 265 260 260 263 264 265 268 269 268 269 273 280 280 282 284 273 262 249 254 262 269 265
249 252 254 252 253 238 255 241 223 208 210 216 227 227 232 243 246 261 271 273 272 261 257 255 258 261 263 262 260 262 270 273 272 271 282 276 259 250 251 250 249 260 259
243 245 250 257 257 255 261 260 240 210 212 208 209 227 236 237 264 276 264 262 263 263 260 255 255 255 258 256 257 255 256 262 264 276 271 261 253 253 254 252 250 252 262
245 248 254 254 254 257 253 248 253 204 211 219 205 228 231 251 271 274 260 256 261 263 261 266 253 249 252 252 248 248 242 259 262 265 260 246 250 256 255 252 256 263 269
232 241 247 255 256 259 255 253 241 195 220 218 220 227 234 246 263 254 258 258 260 264 262 257 256 249 252 241 245 245 248 254 256 255 241 245 252 255 258 262 268 267 269
191 200 218 253 258 260 240 247 232 207 204 204 218 224 232 242 254 259 254 254 264 266 262 259 261 265 260 258 246 233 234 250 252 250 245 247 255 262 265 266 269 274 275
53 28 12 301 281 258 236 232 218 185 206 211 205 220 232 241 252 254 261 261 266 264 273 257 257 264 264 250 236 226 234 244 250 247 251 255 260 263 267 270 273 273 272
39 356 1 356 297 246 235 226 218 201 207 198 200 219 235 244 248 257 259 264 267 269 265 255 253 257 257 228 222 228 228 236 239 242 250 257 266 272 274 275 273 275 278
191 69 9 223 266 134 179 187 204 192 191 198 206 221 238 243 244 244 255 246 255 247 257 268 261 268 251 220 227 231 234 235 233 244 255 265 271 275 277 278 279 277 278
311 85 42 54 182 220 196 201 192 183 190 200 216 221 223 245 243 233 237 256 265 250 258 267 264 257 237 217 227 239 244 242 237 245 256 266 277 280 280 280 279 280 283
222 132 95 58 52 110 172 171 179 174 200 213 218 228 225 240 231 229 237 252 254 248 251 258 252 239 213 215 232 241 242 237 246 257 267 275 277 281 284 283 285 288 290
215 194 161 127 84 45 121 173 183 185 201 209 196 205 215 231 232 243 244 252 247 246 246 247 233 225 218 216 231 235 233 242 252 260 267 273 280 286 288 290 291 292 292
214 206 200 208 184 177 179 174 166 199 219 206 218 221 220 233 242 245 246 245 241 239 243 230 218 213 219 231 233 232 236 245 253 265 278 284 290 293 294 296 295 294 293
222 210 211 209 207 209 204 204 215 212 208 210 226 216 235 243 251 242 248 252 242 237 229 204 206 217 225 236 243 244 247 255 264 273 279 286 291 295 294 293 291 290 293
219 219 196 208 202 209 213 208 214 217 204 223 227 232 231 234 241 244 253 253 242 233 198 197 213 225 239 243 246 248 255 265 273 277 280 283 286 290 293 293 290 291 293
190 196 223 200 194 198 207 210 213 211 201 238 241 226 227 235 235 251 247 217 194 189 195 208 223 242 247 245 247 256 265 271 274 279 281 283 288 289 289 291 293 297 299
178 192 202 215 214 208 203 212 213 212 221 219 229 229 228 237 229 211 195 189 198 199 207 224 240 248 247 247 254 260 266 272 278 281 280 282 285 287 289 290 291 294 297
122 145 153 181 200 174 178 182 185 198 205 213 214 198 194 188 187 187 188 206 216 218 224 234 246 247 250 256 262 267 275 279 282 282 282 282 282 285 287 290 292 291 294
100 125 138 135 143 152 142 144 153 154 160 166 164 176 182 180 187 193 212 227 223 226 240 246 245 250 258 266 272 269 275 282 276 277 280 282 285 288 286 288 296 291 292
150 126 128 143 155 144 142 145 153 152 158 162 187 200 219 219 211 241 234 224 227 239 243 252 259 258 262 268 274 275 275 280 280 283 287 289 285 293 292 289 289 294 289
193 204 209 202 180 169 160 155 163 167 175 186 192 208 222 218 226 231 234 236 240 239 246 251 259 265 272 278 280 281 284 287 290 286 290 289 291 295 290 289 293 295 296
Height
5785 5783 5785 5787 5788 5793 5797 5802 5804 5804 5810 5807 5815 5821 5823 5827 5829 5828 5830 5832 5832 5833 5834 5834 5833 5834 5835 5835 5834 5834 5834 5834 5833 5832 5833 5833 5831 5832 5831 5830 5830 5829 5829
5777 5779 5782 5782 5785 5789 5795 5798 5801 5800 5805 5810 5811 5817 5821 5823 5826 5827 5829 5829 5830 5831 5832 5832 5831 5832 5832 5832 5832 5832 5832 5833 5832 5830 5831 5830 5830 5830 5830 5829 5828 5827 5827
5774 5775 5776 5778 5782 5787 5787 5793 5796 5796 5802 5804 5808 5813 5818 5820 5823 5825 5826 5827 5826 5828 5829 5831 5831 5831 5829 5830 5830 5830 5830 5831 5830 5828 5829 5829 5829 5829 5828 5828 5827 5826 5825
5767 5769 5772 5773 5778 5781 5783 5783 5791 5793 5796 5800 5804 5810 5814 5818 5820 5821 5823 5824 5825 5825 5827 5829 5829 5827 5828 5828 5828 5828 5828 5829 5828 5827 5827 5827 5827 5826 5825 5826 5825 5824 5824
5762 5763 5764 5766 5773 5775 5776 5776 5781 5788 5792 5797 5802 5808 5812 5816 5817 5819 5819 5818 5820 5822 5825 5826 5826 5825 5826 5827 5827 5826 5827 5826 5825 5826 5825 5826 5826 5824 5823 5823 5823 5822 5822
5756 5754 5758 5761 5765 5766 5774 5774 5776 5783 5788 5794 5799 5804 5809 5811 5815 5817 5817 5817 5818 5821 5824 5825 5825 5823 5824 5823 5825 5825 5825 5824 5823 5824 5824 5823 5823 5822 5820 5822 5822 5821 5820
5749 5752 5754 5754 5757 5761 5761 5769 5775 5776 5785 5789 5797 5800 5803 5807 5810 5813 5814 5816 5816 5819 5820 5822 5821 5820 5820 5820 5822 5822 5821 5821 5821 5821 5821 5821 5821 5821 5819 5819 5819 5819 5818
5743 5745 5750 5750 5751 5755 5757 5759 5769 5775 5781 5786 5786 5797 5800 5803 5806 5808 5811 5813 5814 5816 5817 5819 5819 5817 5817 5818 5818 5819 5819 5818 5818 5818 5818 5818 5819 5818 5817 5817 5816 5816 5816
5736 5741 5741 5743 5747 5748 5752 5760 5763 5769 5775 5780 5785 5794 5797 5799 5801 5804 5805 5808 5810 5812 5813 5816 5815 5814 5813 5814 5814 5813 5814 5815 5816 5816 5816 5816 5816 5816 5815 5814 5814 5813 5812
5730 5733 5734 5735 5738 5742 5744 5747 5755 5756 5770 5776 5784 5791 5794 5795 5799 5801 5802 5804 5806 5807 5809 5811 5812 5806 5807 5808 5808 5808 5811 5813 5813 5813 5813 5813 5813 5813 5812 5812 5811 5811 5810
5727 5728 5730 5731 5733 5732 5737 5737 5743 5755 5764 5771 5780 5788 5790 5792 5796 5796 5798 5799 5800 5802 5803 5804 5805 5804 5805 5804 5805 5806 5807 5810 5809 5810 5810 5810 5809 5809 5809 5808 5807 5806 5806
5722 5719 5719 5715 5715 5718 5727 5732 5745 5750 5751 5766 5774 5782 5786 5788 5791 5794 5795 5795 5795 5797 5797 5797 5797 5798 5798 5800 5801 5802 5804 5806 5806 5806 5807 5807 5806 5805 5805 5804 5804 5803 5802
5724 5719 5713 5710 5707 5706 5713 5724 5736 5747 5749 5765 5770 5778 5781 5784 5788 5790 5790 5791 5793 5793 5794 5792 5791 5792 5793 5794 5797 5800 5799 5801 5801 5802 5802 5803 5803 5802 5802 5801 5800 5798 5799
5726 5719 5717 5712 5703 5698 5707 5723 5733 5744 5749 5759 5768 5774 5777 5781 5783 5783 5787 5787 5787 5788 5789 5788 5786 5787 5788 5790 5792 5794 5795 5796 5797 5798 5799 5799 5799 5797 5797 5797 5795 5794 5793
5721 5720 5718 5716 5718 5713 5711 5724 5734 5744 5751 5760 5766 5770 5774 5776 5778 5779 5782 5782 5783 5782 5783 5783 5782 5783 5784 5787 5788 5790 5791 5792 5793 5794 5795 5796 5794 5793 5793 5791 5790 5789 5788
5722 5721 5718 5719 5720 5719 5721 5728 5736 5745 5753 5758 5762 5764 5768 5771 5772 5773 5776 5777 5776 5775 5777 5776 5776 5778 5781 5784 5785 5787 5788 5788 5789 5790 5791 5791 5790 5790 5788 5787 5785 5783 5782
5719 5721 5720 5721 5722 5726 5730 5733 5740 5748 5751 5756 5757 5760 5763 5767 5767 5769 5769 5771 5770 5770 5770 5771 5771 5774 5777 5780 5782 5783 5784 5785 5785 5784 5786 5786 5786 5784 5783 5782 5781 5778 5776
5718 5720 5721 5720 5724 5727 5730 5735 5739 5745 5749 5750 5752 5756 5760 5762 5762 5763 5765 5765 5764 5764 5764 5767 5769 5772 5775 5776 5778 5780 5781 5782 5781 5782 5782 5781 5780 5779 5777 5775 5773 5770 5769
5714 5717 5719 5721 5722 5725 5730 5733 5737 5740 5742 5744 5746 5751 5754 5757 5758 5758 5759 5760 5759 5759 5760 5763 5767 5772 5772 5774 5775 5776 5778 5778 5779 5778 5777 5776 5774 5773 5771 5768 5766 5764 5761
5712 5715 5718 5720 5721 5723 5727 5730 5733 5736 5740 5743 5745 5747 5750 5752 5753 5754 5756 5755 5754 5758 5759 5763 5767 5769 5769 5770 5772 5772 5774 5773 5773 5771 5771 5770 5768 5765 5763 5761 5759 5758 5755
5712 5714 5715 5717 5719 5722 5724 5727 5730 5733 5737 5739 5741 5743 5745 5746 5748 5748 5748 5750 5752 5756 5759 5761 5763 5764 5765 5766 5767 5767 5768 5768 5767 5766 5763 5761 5759 5757 5756 5754 5752 5749 5747
5708 5711 5714 5715 5716 5717 5719 5722 5724 5727 5731 5733 5736 5738 5738 5740 5742 5743 5746 5748 5752 5753 5754 5757 5760 5760 5760 5760 5761 5761 5761 5761 5759 5758 5756 5754 5752 5750 5748 5746 5744 5741 5738
5711 5712 5713 5716 5717 5716 5717 5720 5721 5724 5727 5729 5732 5731 5733 5735 5738 5741 5743 5747 5749 5749 5752 5754 5755 5756 5756 5756 5756 5757 5756 5755 5753 5751 5748 5745 5744 5741 5738 5736 5734 5731 5729
5714 5716 5717 5718 5718 5717 5714 5716 5719 5721 5724 5727 5729 5732 5734 5735 5738 5739 5741 5744 5745 5747 5750 5749 5751 5752 5751 5752 5750 5748 5748 5748 5745 5743 5740 5738 5735 5732 5728 5727 5725 5722 5718
5719 5719 5719 5720 5721 5719 5718 5719 5721 5722 5723 5725 5730 5733 5735 5734 5733 5737 5739 5740 5741 5743 5743 5745 5746 5747 5746 5744 5742 5740 5739 5738 5735 5734 5732 5728 5725 5722 5720 5718 5715 5712 5707
5721 5721 5723 5724 5724 5722 5721 5720 5722 5722 5724 5727 5728 5730 5729 5728 5731 5733 5736 5736 5737 5737 5739 5739 5740 5739 5738 5737 5735 5732 5730 5728 5727 5725 5722 5719 5716 5713 5711 5707 5704 5699 5694